Time,TemperatureF,DewpointF,PressureIn,WindDirection,WindDirectionDegrees,WindSpeedMPH,WindSpeedGustMPH,Humidity,HourlyPrecipIn,Conditions,Clouds,dailyrainin,SolarRadiationWatts/m^2,SoftwareType,DateUTC
2013-02-24 00:21:00,21.0,19.0,-100.00,West,279,1.0,4.0,92,0.00,,,0.17,0.000000,,2013-02-24 07:21:00,
2013-02-24 00:31:00,21.0,19.0,-100.00,West,279,1.0,4.0,92,0.00,,,0.17,0.000000,,2013-02-24 07:31:00,
2013-02-24 00:41:00,21.0,19.0,-100.00,West,279,1.0,4.0,92,0.00,,,0.17,0.000000,,2013-02-24 07:41:00,
2013-02-24 00:51:00,21.0,19.0,-100.00,West,279,1.0,4.0,92,0.00,,,0.17,0.000000,,2013-02-24 07:51:00,
2013-02-24 01:22:00,21.0,19.0,-100.00,SE,134,0.0,3.0,93,0.00,,,0.17,0.000000,,2013-02-24 08:22:00,
2013-02-24 01:31:00,21.0,19.0,-100.00,SE,134,0.0,3.0,93,0.00,,,0.17,0.000000,,2013-02-24 08:31:00,
2013-02-24 01:41:00,21.0,19.0,-100.00,SE,134,0.0,3.0,93,0.00,,,0.17,0.000000,,2013-02-24 08:41:00,
2013-02-24 01:53:00,21.0,19.0,-100.00,SE,134,0.0,3.0,93,0.00,,,0.17,0.000000,,2013-02-24 08:53:00,
2013-02-24 02:21:00,20.0,18.0,-100.00,South,185,1.0,3.0,92,0.00,,,0.17,0.000000,,2013-02-24 09:21:00,
2013-02-24 02:31:00,20.0,18.0,-100.00,South,185,1.0,3.0,92,0.00,,,0.17,0.000000,,2013-02-24 09:31:00,
2013-02-24 02:41:00,20.0,18.0,-100.00,South,185,1.0,3.0,92,0.00,,,0.17,0.000000,,2013-02-24 09:41:00,
2013-02-24 02:51:00,20.0,18.0,-100.00,South,185,1.0,3.0,92,0.00,,,0.17,0.000000,,2013-02-24 09:51:00,
2013-02-24 03:21:00,20.0,18.0,-100.00,East,80,0.0,3.0,92,0.00,,,0.17,0.000000,,2013-02-24 10:21:00,
2013-02-24 03:31:00,20.0,18.0,-100.00,East,80,0.0,3.0,92,0.00,,,0.17,0.000000,,2013-02-24 10:31:00,
2013-02-24 03:41:00,20.0,18.0,-100.00,East,80,0.0,3.0,92,0.00,,,0.17,0.000000,,2013-02-24 10:41:00,
2013-02-24 03:51:00,20.0,18.0,-100.00,East,80,0.0,3.0,92,0.00,,,0.17,0.000000,,2013-02-24 10:51:00,
2013-02-24 04:21:00,20.0,18.0,-100.00,NNW,333,0.0,3.0,92,0.00,,,0.17,0.000000,,2013-02-24 11:21:00,
2013-02-24 04:32:00,20.0,18.0,-100.00,NNW,333,0.0,3.0,92,0.00,,,0.17,0.000000,,2013-02-24 11:32:00,
2013-02-24 04:41:00,20.0,18.0,-100.00,NNW,333,0.0,3.0,92,0.00,,,0.17,0.000000,,2013-02-24 11:41:00,
2013-02-24 04:52:00,20.0,18.0,-100.00,NNW,333,0.0,3.0,92,0.00,,,0.17,0.000000,,2013-02-24 11:52:00,
2013-02-24 05:21:00,17.0,15.0,-100.00,ESE,120,0.0,1.0,91,0.00,,,0.17,0.000000,,2013-02-24 12:21:00,
2013-02-24 05:32:00,17.0,15.0,-100.00,ESE,120,0.0,1.0,91,0.00,,,0.17,0.000000,,2013-02-24 12:32:00,
2013-02-24 05:46:00,17.0,15.0,-100.00,ESE,120,0.0,1.0,91,0.00,,,0.17,0.000000,,2013-02-24 12:46:00,
2013-02-24 05:55:00,17.0,15.0,-100.00,ESE,120,0.0,1.0,91,0.00,,,0.17,0.000000,,2013-02-24 12:55:00,
2013-02-24 06:25:00,15.0,13.0,-100.00,East,96,0.0,2.0,90,0.00,,,0.17,0.000000,,2013-02-24 13:25:00,
2013-02-24 06:33:00,15.0,13.0,-100.00,East,96,0.0,2.0,90,0.00,,,0.17,0.000000,,2013-02-24 13:33:00,
2013-02-24 06:43:00,15.0,13.0,-100.00,East,96,0.0,2.0,90,0.00,,,0.17,0.000000,,2013-02-24 13:43:00,
2013-02-24 06:52:00,15.0,13.0,-100.00,East,96,0.0,2.0,90,0.00,,,0.17,0.000000,,2013-02-24 13:52:00,
2013-02-24 07:23:00,15.0,12.0,-100.00,ESE,115,1.0,3.0,89,0.00,,,0.17,0.000000,,2013-02-24 14:23:00,
2013-02-24 07:32:00,15.0,12.0,-100.00,ESE,115,1.0,3.0,89,0.00,,,0.17,0.000000,,2013-02-24 14:32:00,
2013-02-24 07:43:00,15.0,12.0,-100.00,ESE,115,1.0,3.0,89,0.00,,,0.17,0.000000,,2013-02-24 14:43:00,
2013-02-24 07:52:00,15.0,12.0,-100.00,ESE,115,1.0,3.0,89,0.00,,,0.17,0.000000,,2013-02-24 14:52:00,
2013-02-24 08:22:00,12.0,9.0,-100.00,East,95,2.0,3.0,87,0.00,,,0.17,1.000000,,2013-02-24 15:22:00,
2013-02-24 08:32:00,12.0,9.0,-100.00,East,95,2.0,3.0,87,0.00,,,0.17,1.000000,,2013-02-24 15:32:00,
2013-02-24 08:42:00,12.0,9.0,-100.00,East,95,2.0,3.0,87,0.00,,,0.17,1.000000,,2013-02-24 15:42:00,
2013-02-24 08:52:00,12.0,9.0,-100.00,East,95,2.0,3.0,87,0.00,,,0.17,1.000000,,2013-02-24 15:52:00,
2013-02-24 09:21:00,15.0,12.0,-100.00,East,90,3.0,4.0,88,0.00,,,0.17,5.000000,,2013-02-24 16:21:00,
2013-02-24 09:31:00,15.0,12.0,-100.00,East,90,3.0,4.0,88,0.00,,,0.17,5.000000,,2013-02-24 16:31:00,
2013-02-24 09:41:00,15.0,12.0,-100.00,East,90,3.0,4.0,88,0.00,,,0.17,5.000000,,2013-02-24 16:41:00,
2013-02-24 09:52:00,15.0,12.0,-100.00,East,90,3.0,4.0,88,0.00,,,0.17,5.000000,,2013-02-24 16:52:00,
2013-02-24 10:21:00,18.0,16.0,-100.00,East,90,2.0,4.0,90,0.00,,,0.17,12.000000,,2013-02-24 17:21:00,
2013-02-24 10:32:00,18.0,16.0,-100.00,East,90,2.0,4.0,90,0.00,,,0.17,12.000000,,2013-02-24 17:32:00,
2013-02-24 10:41:00,18.0,16.0,-100.00,East,90,2.0,4.0,90,0.00,,,0.17,12.000000,,2013-02-24 17:41:00,
2013-02-24 10:52:00,18.0,16.0,-100.00,East,90,2.0,4.0,90,0.00,,,0.17,12.000000,,2013-02-24 17:52:00,
2013-02-24 11:22:00,22.0,20.0,-100.00,East,100,1.0,4.0,90,0.00,,,0.17,13.000000,,2013-02-24 18:22:00,
2013-02-24 11:31:00,22.0,20.0,-100.00,East,100,1.0,4.0,90,0.00,,,0.17,13.000000,,2013-02-24 18:31:00,
2013-02-24 11:42:00,22.0,20.0,-100.00,East,100,1.0,4.0,90,0.00,,,0.17,13.000000,,2013-02-24 18:42:00,
2013-02-24 11:51:00,22.0,20.0,-100.00,East,100,1.0,4.0,90,0.00,,,0.17,13.000000,,2013-02-24 18:51:00,
2013-02-24 12:22:00,34.0,27.0,-100.00,SE,128,0.0,3.0,76,0.04,,,0.21,149.000000,,2013-02-24 19:22:00,
2013-02-24 13:21:00,38.0,25.0,-100.00,WSW,248,1.0,5.0,59,0.02,,,0.16,508.000000,,2013-02-24 20:21:00,
2013-02-24 14:21:00,36.0,20.0,-100.00,West,261,2.0,6.0,52,-99.99,,,0.17,536.000000,,2013-02-24 21:21:00,
2013-02-24 14:32:00,36.0,20.0,-100.00,West,261,2.0,6.0,52,-99.99,,,0.17,536.000000,,2013-02-24 21:32:00,
2013-02-24 14:41:00,36.0,20.0,-100.00,West,261,2.0,6.0,52,-99.99,,,0.17,536.000000,,2013-02-24 21:41:00,
2013-02-24 14:52:00,36.0,20.0,-100.00,West,261,2.0,6.0,52,-99.99,,,0.17,536.000000,,2013-02-24 21:52:00,
2013-02-24 15:21:00,35.0,20.0,-100.00,NW,315,2.0,7.0,53,0.04,,,0.18,538.000000,,2013-02-24 22:21:00,
2013-02-24 15:31:00,35.0,20.0,-100.00,NW,315,2.0,7.0,53,0.04,,,0.18,538.000000,,2013-02-24 22:31:00,
2013-02-24 15:41:00,35.0,20.0,-100.00,NW,315,2.0,7.0,53,0.04,,,0.18,538.000000,,2013-02-24 22:41:00,
2013-02-24 15:51:00,35.0,20.0,-100.00,NW,315,2.0,7.0,53,0.04,,,0.18,538.000000,,2013-02-24 22:51:00,
2013-02-24 16:21:00,32.0,19.0,-100.00,WNW,300,3.0,6.0,59,0.02,,,0.18,423.000000,,2013-02-24 23:21:00,
2013-02-24 16:31:00,32.0,19.0,-100.00,WNW,300,3.0,6.0,59,0.02,,,0.18,423.000000,,2013-02-24 23:31:00,
2013-02-24 16:41:00,32.0,19.0,-100.00,WNW,300,3.0,6.0,59,0.02,,,0.18,423.000000,,2013-02-24 23:41:00,
2013-02-24 16:52:00,32.0,19.0,-100.00,WNW,300,3.0,6.0,59,0.02,,,0.18,423.000000,,2013-02-24 23:52:00,
2013-02-24 17:21:00,32.0,20.0,-100.00,West,266,2.0,8.0,60,0.00,,,0.17,294.000000,,2013-02-25 00:21:00,
2013-02-24 17:31:00,32.0,20.0,-100.00,West,266,2.0,8.0,60,0.00,,,0.17,294.000000,,2013-02-25 00:31:00,
2013-02-24 17:41:00,32.0,20.0,-100.00,West,266,2.0,8.0,60,0.00,,,0.17,294.000000,,2013-02-25 00:41:00,
2013-02-24 17:51:00,32.0,20.0,-100.00,West,266,2.0,8.0,60,0.00,,,0.17,294.000000,,2013-02-25 00:51:00,
2013-02-24 18:21:00,26.0,17.0,-100.00,NNW,330,1.0,7.0,69,0.00,,,0.17,126.000000,,2013-02-25 01:21:00,
2013-02-24 18:31:00,26.0,17.0,-100.00,NNW,330,1.0,7.0,69,0.00,,,0.17,126.000000,,2013-02-25 01:31:00,
2013-02-24 18:42:00,26.0,17.0,-100.00,NNW,330,1.0,7.0,69,0.00,,,0.17,126.000000,,2013-02-25 01:42:00,
2013-02-24 18:51:00,26.0,17.0,-100.00,NNW,330,1.0,7.0,69,0.00,,,0.17,126.000000,,2013-02-25 01:51:00,
2013-02-24 19:21:00,22.0,17.0,-100.00,NE,36,0.0,3.0,80,0.00,,,0.17,4.000000,,2013-02-25 02:21:00,
2013-02-24 19:31:00,22.0,17.0,-100.00,NE,36,0.0,3.0,80,0.00,,,0.17,4.000000,,2013-02-25 02:31:00,
2013-02-24 19:41:00,22.0,17.0,-100.00,NE,36,0.0,3.0,80,0.00,,,0.17,4.000000,,2013-02-25 02:41:00,
2013-02-24 19:52:00,22.0,17.0,-100.00,NE,36,0.0,3.0,80,0.00,,,0.17,4.000000,,2013-02-25 02:52:00,
2013-02-24 20:21:00,22.0,16.0,-100.00,NE,51,0.0,2.0,78,0.00,,,0.17,0.000000,,2013-02-25 03:21:00,
2013-02-24 20:31:00,22.0,16.0,-100.00,NE,51,0.0,2.0,78,0.00,,,0.17,0.000000,,2013-02-25 03:31:00,
2013-02-24 20:41:00,22.0,16.0,-100.00,NE,51,0.0,2.0,78,0.00,,,0.17,0.000000,,2013-02-25 03:41:00,
2013-02-24 20:51:00,22.0,16.0,-100.00,NE,51,0.0,2.0,78,0.00,,,0.17,0.000000,,2013-02-25 03:51:00,
2013-02-24 21:21:00,20.0,17.0,-100.00,East,96,0.0,2.0,87,0.00,,,0.17,0.000000,,2013-02-25 04:21:00,
2013-02-24 21:31:00,20.0,17.0,-100.00,East,96,0.0,2.0,87,0.00,,,0.17,0.000000,,2013-02-25 04:31:00,
2013-02-24 21:41:00,20.0,17.0,-100.00,East,96,0.0,2.0,87,0.00,,,0.17,0.000000,,2013-02-25 04:41:00,
2013-02-24 21:51:00,20.0,17.0,-100.00,East,96,0.0,2.0,87,0.00,,,0.17,0.000000,,2013-02-25 04:51:00,
2013-02-24 22:22:00,20.0,17.0,-100.00,East,94,2.0,3.0,89,0.00,,,0.17,0.000000,,2013-02-25 05:22:00,
2013-02-24 22:31:00,20.0,17.0,-100.00,East,94,2.0,3.0,89,0.00,,,0.17,0.000000,,2013-02-25 05:31:00,
2013-02-24 22:41:00,20.0,17.0,-100.00,East,94,2.0,3.0,89,0.00,,,0.17,0.000000,,2013-02-25 05:41:00,
2013-02-24 22:52:00,20.0,17.0,-100.00,East,94,2.0,3.0,89,0.00,,,0.17,0.000000,,2013-02-25 05:52:00,
2013-02-24 23:21:00,19.0,17.0,-100.00,ESE,104,1.0,4.0,90,0.00,,,0.17,0.000000,,2013-02-25 06:21:00,
2013-02-24 23:31:00,19.0,17.0,-100.00,ESE,104,1.0,4.0,90,0.00,,,0.17,0.000000,,2013-02-25 06:31:00,
2013-02-24 23:41:00,19.0,17.0,-100.00,ESE,104,1.0,4.0,90,0.00,,,0.17,0.000000,,2013-02-25 06:41:00,
2013-02-24 23:51:00,19.0,17.0,-100.00,ESE,104,1.0,4.0,90,0.00,,,0.17,0.000000,,2013-02-25 06:51:00,